Nellis Air Force Base Las Vegas US
ICAO: KLSV
IATA: LSV
Category: Medium
Scheduled Services: No

Elevation: 1870 ft
TransAlt. 18000 ft.

Airport Communications:
ALCE AMC:25.735
APP:118.125
ATIS:27.01
CLNC DEL:120.9
DEP:135.1
GND:121.8
SOF:30.56
PMSV METRO:32.39
ACC COMD POST:32
PTD:139.3
TWR:132.55

KLSV Zoom In..

If Map Doesn't Load, Click Here

Runways:

(A) RW 03L length 10120 ft width 200 ft
---- / hdg 27

(B) RW 03R length 10051 ft width 150 ft
---- / hdg 27

(C) RW 21L length 10051 ft width 150 ft
ILS 109.10 / hdg 207

(D) RW 21R length 10120 ft width 200 ft
---- / hdg 207

Location; KLSV
Day. 18 / Time. 19.56 Zulu
* Altimeter: 29.79
* Temperature: 36° c. 96.8°f.
* Wind from: 180° Speed 13 kn.
Dewpoint: -16° c.
Visibility: 10 Statute Miles.
Clouds: Clear (automated report).

KLSV 181956Z AUTO 18013KT 10SM CLR 36/M16 A2979 RMK AO2 SLP062 T03551162


Wind From 180°
Speed 13 kn.

 
 
jpsmedia.com for Web Design worldairports.se 2018   terms of use